Hourly Data Report for July 17, 2017

QUALICUM BEACH AIRPORT
BRITISH COLUMBIA

49°20'14.000" N
124°23'38.000" W
58.20 m
1026562
71766
VOQ

Download Data

Hourly Data (July 2017)
Hourly Data Report for July 17, 2017
TIME
LST
Temp Definition
°C
Dew Point Definition
°C
Rel Hum Definition
%
Precip. Amount Definition
mm

Wind Dir Definition
10's deg

Wind Spd Definition
km/h
Visibility Definition
km
Stn Press Definition
kPa
Hmdx Definition


Wind Chill Definition


Weather Definition


00:00 12.5 9.5 82 0.0 27 2   101.49     LegendNANA
01:00 12.5 9.4 81 0.0 28 6   101.47     LegendNANA
02:00 11.6 8.7 82 0.0 26 6   101.45     LegendNANA
03:00 12.6 8.0 74 0.0 27 7   101.43     LegendNANA
04:00 12.4 7.3 71 0.0 26 6   101.40     LegendNANA
05:00 11.9 7.3 73 0.0 28 4   101.42     LegendNANA
06:00 14.3 7.4 63 0.0 27 6   101.43     LegendNANA
07:00 15.1 8.8 66 0.0 30 14   101.44     LegendNANA
08:00 16.1 8.9 62 0.0 30 14   101.44     LegendNANA
09:00 16.8 9.6 62 0.0 31 14   101.41     LegendNANA
10:00 16.8 9.4 62 0.0 32 13   101.37     LegendNANA
11:00 18.5 9.3 55 0.0 30 15   101.32     LegendNANA
12:00 20.1 6.9 42 0.0 33 14   101.27     LegendNANA
13:00 21.1 9.0 46 0.0 33 10   101.22     LegendNANA
14:00 21.2 6.7 39 0.0 35 8   101.16     LegendNANA
15:00 21.9 7.4 39 0.0 35 9   101.10     LegendNANA
16:00 22.4 5.4 33 0.0 32 8   101.05     LegendNANA
17:00 22.6 6.2 35 0.0 34 9   101.00     LegendNANA
18:00 23.2 5.7 32 0.0 31 10   100.96     LegendNANA
19:00 22.1 4.7 32 0.0 30 5   100.94     LegendNANA
20:00 18.9 7.3 47 0.0 26 4   100.92     LegendNANA
21:00 16.2 6.8 54 0.0 24 5   100.93     LegendNANA
22:00 15.6 7.5 58 0.0 24 6   100.91     LegendNANA
23:00 14.5 7.8 64 0.0 25 3   100.91     LegendNANA

Notes on Data Quality.

Legend

  • E = Estimated
  • M = Missing
  • NA = Not Available*
  • [empty] = Indicates an unobserved value
Date modified: